Read MPEC 2003-Y47
Read MPEC 2003-Y49
M.P.E.C. 2003-Y48 Issued 2003 Dec. 23, 00:15 UT
The Minor Planet Electronic Circulars contain information on unusual
minor planets and routine data on comets. They are published
on behalf of Commission 20 of the International Astronomical Union by the
Minor Planet Center, Smithsonian Astrophysical Observatory,
Cambridge, MA 02138, U.S.A.
Supported in part by the Steven and Michele Kirsch Foundation
Prepared using the Tamkin Foundation Computer Network
MPC@CFA.HARVARD.EDU
URL http://cfa-www.harvard.edu/iau/mpc.html ISSN 1523-6714
2003 YE45
Observations:
K03Y45E* C2003 12 21.44012 10 48 29.76 -00 14 48.7 19.0 V EY048703
K03Y45E C2003 12 21.45381 10 48 31.18 -00 15 23.3 18.9 V EY048703
K03Y45E C2003 12 21.46743 10 48 32.63 -00 15 58.7 18.5 V EY048703
K03Y45E C2003 12 21.48110 10 48 33.94 -00 16 35.9 19.4 V EY048703
K03Y45E C2003 12 22.11419 10 49 42.29 -00 44 44.0 EY048J95
K03Y45E C2003 12 22.12002 10 49 42.93 -00 45 00.7 EY048J95
K03Y45E C2003 12 22.12595 10 49 43.55 -00 45 15.4 18.6 R EY048J95
K03Y45E C2003 12 22.28786 10 50 01.16 -00 52 28.2 17.4 R EY048785
K03Y45E C2003 12 22.30747 10 50 03.24 -00 53 20.4 17.8 R EY048785
K03Y45E C2003 12 22.30968 10 50 03.84 -00 53 24.3 18.6 R EY048854
K03Y45E C2003 12 22.31629 10 50 04.48 -00 53 43.5 18.5 R EY048854
K03Y45E C2003 12 22.39021 10 50 12.20 -00 57 01.0 18.4 EY048704
K03Y45E C2003 12 22.40292 10 50 13.60 -00 57 35.4 18.5 EY048704
K03Y45E C2003 12 22.41533 10 50 14.90 -00 58 09.0 18.8 EY048704
K03Y45E C2003 12 22.42771 10 50 16.11 -00 58 42.8 18.2 EY048704
K03Y45E C2003 12 22.44066 10 50 17.46 -00 59 17.2 18.8 EY048704
Observer details:
703 Catalina Sky Survey. Observers S. Larson, E. Beshore, E. Christensen,
R. Hill, S. Kolar, D. McLean. 0.68-m f/1.8 Schmidt + CCD.
704 Lincoln Laboratory ETS, New Mexico. Observers M. Blythe, F. Shelly,
M. Bezpalko, R. Huber, L. Manguso, D. Torres, R. Kracke, M. McCleary,
H. Stange, A. Milner. Measurers J. Stuart, R. Sayer, J. Evans, J. Kommers.
1.0-m f/2.15 reflector + CCD.
785 Fitz-Randolph Observatory, Princeton. Observer J. Maffei. 0.91-m f/13.6
Cassegrain + CCD.
854 Sabino Canyon Observatory, Tucson. Observer J. E. McGaha. 0.356-m f/10.0
Schmidt-Cassegrain + CCD.
J95 Great Shefford. Observer P. Birtwhistle. 0.30-m f/6.3 Schmidt-Cassegrain
+ CCD.
Orbital elements:
2003 YE45
Epoch 2003 Dec. 7.0 TT = JDT 2452980.5 MPC
M 278.93205 (2000.0) P Q
n 0.64119895 Peri. 291.94129 -0.72888140 +0.60747482
a 1.3319079 Node 286.92517 -0.44006249 -0.76901154
e 0.2539565 Incl. 19.27237 -0.52447774 -0.19898644
P 1.54 H 17.3 G 0.15
From 16 observations 2003 Dec. 21-22.
Ephemeris:
2003 YE45 a,e,i = 1.33, 0.25, 19 q = 0.9937
Date TT R. A. (2000) Decl. Delta r Elong. Phase V
2003 12 17 10 40.45 +02 52.8 0.684 1.327 104.0 46.0 18.8
2003 12 27 10 58.41 -04 33.1 0.595 1.289 106.9 46.9 18.5
2004 01 06 11 16.11 -13 32.6 0.518 1.250 108.7 48.2 18.2
2004 01 16 11 34.28 -24 15.1 0.457 1.211 108.8 50.3 17.9
2004 01 26 11 54.17 -36 28.1 0.414 1.172 106.7 53.6 17.7
2004 02 05 12 18.69 -49 26.0 0.389 1.135 102.5 58.0 17.6
2004 02 15 12 55.01 -61 57.9 0.381 1.100 96.9 63.0 17.6
2004 02 25 14 03.7 -72 37.4 0.385 1.069 91.1 67.8 17.8
2004 03 06 16 38.3 -78 50.9 0.396 1.041 85.9 71.8 17.9
2004 03 16 19 48.8 -77 02.8 0.410 1.019 81.7 74.9 18.0
2004 03 26 21 21.3 -70 43.6 0.423 1.004 78.6 77.0 18.1
2004 04 05 22 03.71 -63 27.1 0.433 0.995 76.8 78.2 18.2
2004 04 15 22 28.06 -55 57.0 0.438 0.994 76.2 78.5 18.2
2004 04 25 22 44.58 -48 19.0 0.440 1.001 76.6 78.0 18.2
2004 05 05 22 56.93 -40 31.0 0.437 1.014 78.2 76.8 18.2
2004 05 15 23 06.65 -32 31.0 0.431 1.035 80.9 74.8 18.2
2004 05 25 23 14.02 -24 19.4 0.422 1.060 84.7 72.0 18.1
2004 06 04 23 18.84 -15 56.4 0.411 1.091 89.4 68.4 18.0
2004 06 14 23 20.60 -07 24.6 0.400 1.125 95.2 64.1 17.8
2004 06 24 23 18.28 +01 08.6 0.391 1.161 101.9 58.9 17.7
2004 07 04 23 10.79 +09 29.3 0.384 1.200 109.2 53.1 17.6
2004 07 14 22 57.06 +17 13.2 0.384 1.239 117.0 47.0 17.5
2004 07 24 22 36.57 +23 44.0 0.391 1.278 124.3 41.0 17.4
2004 08 03 22 10.70 +28 24.4 0.408 1.316 130.5 35.9 17.4
2004 08 13 21 42.93 +30 52.7 0.435 1.354 134.4 32.3 17.5
2004 08 23 21 17.94 +31 14.7 0.474 1.390 135.6 30.6 17.7
2004 09 02 20 59.37 +30 03.2 0.524 1.425 134.3 30.4 18.0
2004 09 12 20 48.42 +27 57.7 0.584 1.458 131.1 31.3 18.3
2004 09 22 20 44.69 +25 30.6 0.652 1.489 126.9 32.6 18.6
2004 10 02 20 47.03 +23 04.9 0.728 1.518 122.0 34.0 18.9
2004 10 12 20 54.11 +20 52.9 0.811 1.545 116.9 35.2 19.2
2004 10 22 21 04.92 +19 01.3 0.899 1.569 111.8 36.1 19.5
2004 11 01 21 18.56 +17 33.2 0.991 1.591 106.6 36.7 19.8
2004 11 11 21 34.37 +16 28.7 1.087 1.610 101.5 37.1 20.0
2004 11 21 21 51.89 +15 47.2 1.186 1.626 96.4 37.1 20.2
2004 12 01 22 10.70 +15 27.2 1.286 1.640 91.5 36.9 20.4
2004 12 11 22 30.53 +15 26.4 1.386 1.652 86.6 36.5 20.6
2004 12 21 22 51.21 +15 42.8 1.486 1.660 81.7 35.9 20.7
2004 12 31 23 12.55 +16 13.8 1.585 1.666 77.0 35.1 20.9
2005 01 10 23 34.49 +16 56.9 1.681 1.669 72.3 34.1 21.0
2005 01 20 23 56.97 +17 49.7 1.774 1.670 67.7 33.0 21.0
2005 01 30 00 19.96 +18 49.6 1.863 1.668 63.1 31.8 21.1
Timothy B. Spahr (C) Copyright 2003 MPC M.P.E.C. 2003-Y48
Read MPEC 2003-Y47
Read MPEC 2003-Y49
Our Web policy. Index to the CBAT/MPC/ICQ pages.